Location: Azalea Creek
(37.1280°N, 119.2623°W)
Time: 04:54:10
(UTC+00:00)

STARLINK-53 - Pass Details

Date: 17 February 2020
Orbit: 528 x 531 km, 53.0° (Epoch: 29 March)

Event Time Altitude Azimuth Distance (km) Brightness Sun altitude
Rises 02:19:00 0° 204° (SSW) 2,647 7.6 -8.9°
Reaches altitude 10° 02:21:20 10° 195° (SSW) 1,763 6.5 -9.3°
Maximum altitude 02:24:58 33° 130° (SE) 894 4.4 -10.1°
Enters shadow 02:27:49 15° 71° (ENE) 1,504 5.2 -10.6°
